Regional Weather Roundup
Issued by NWS Charleston, SC

Home | Current Version | Previous Version | Text Only | Print | Product List | Glossary On
Versions: 1 2 3 4 5 6 7 8 9 10 11 12 13 14 15 16 17 18 19 20 21 22 23 24 25 26 27 28 29 30 31 32 33 34 35 36 37 38 39 40 41 42 43 44 45 46 47 48 49 50
000
ASUS42 KCHS 230327
RWRCHS

REGIONAL WEATHER ROUNDUP
NATIONAL WEATHER SERVICE CHARLESTON SC
1100 PM EDT WED MAR 22 2017

NOTE: "FAIR" INDICATES FEW OR NO CLOUDS BELOW 12,000 FEET WITH NO
SIGNIFICANT WEATHER AND/OR OBSTRUCTIONS TO VISIBILITY.

NOT ALL STATIONS ARE QUALITY CONTROLLED. USE DATA WITH CAUTION...
ESPECIALLY DEWPOINT OBSERVATIONS.

SCZ027-030-031-034>040-042>050-230400-
...SOUTHEAST SOUTH CAROLINA...

CITY           SKY/WX    TMP DP  RH WIND       PRES   REMARKS
N CHARLESTON   CLOUDY    56  49  77 NE8       30.29R
WATERFRONT PRK   N/A     59  54  83 NE14      30.27R
JOHNS ISLAND   FAIR      59  52  77 NE9       30.30R
PINOPOLIS        N/A     57  46  67 E8        30.21R
MONCKS CORNER  FAIR      54  45  71 NE3       30.31R
SUMMERVILLE    FAIR      54  41  62 CALM      30.31R
BEAUFORT MCAS  PTCLDY    60  54  80 NE12G18   30.27R
BEAUFORT ARPT  FAIR      59  52  77 NE15      30.27R
HILTON HEAD IS MOCLDY   N/A N/A N/A NE15G21   30.27R
WALTERBORO     PTCLDY    54  32  43 NE5       30.31R
ALLENDALE      FAIR      59  32  36 CALM      30.28R

...SOUTHERN MIDLANDS AND PEE DEE...

CITY           SKY/WX    TMP DP  RH WIND       PRES   REMARKS
GEORGETOWN     CLOUDY    54  45  71 E12G23    30.34R
KINGSTREE      FAIR      46  37  71 E6        30.33R
ORANGEBURG     PTCLDY    54  33  45 NE5       30.30R
BARNWELL       FAIR      57  34  41 NE7       30.29R
AIKEN          FAIR      50  30  46 E5        30.33R
MANNING        FAIR      45  32  61 N3        30.32R
COLUMBIA       PTCLDY    54  32  43 E3        30.30R
SUMTER         CLEAR     49  31  49 NE6       30.29R
FLORENCE       CLEAR     52  32  46 NE12      30.34R
MYRTLE BEACH   PTCLDY    54  42  64 E16G22    30.35R
N MYRTLE BEACH CLOUDY    51  40  65 E14       30.35R

$$

GAZ063-065-086>088-099>101-113>116-118-119-134>141-150-230400-
...SOUTHEAST GEORGIA...

CITY           SKY/WX    TMP DP  RH WIND       PRES   REMARKS
SAVANNAH ARPT  CLOUDY    61  51  70 E8        30.25R
HUNTER AAF     MOCLDY    62  55  77 E8        30.22R
FORT STEWART   PTCLDY    61  52  73 E7        30.22R
STATESBORO     CLEAR     62  53  74 E7        30.27R
SYLVANIA       PTCLDY   N/A N/A N/A E7        30.28R
CLAXTON        FAIR     N/A N/A N/A NE7       30.26R

...CSRA...CENTRAL AND FAR SOUTHEAST GEORGIA...

CITY           SKY/WX    TMP DP  RH WIND       PRES   REMARKS
THOMSON        CLEAR     56  33  41 MISG      30.33R
AUGUSTA-BUSH   MOCLDY    64  30  27 E8        30.28R
AUGUSTA-DANIEL CLEAR     60  26  27 E10       30.28R
SWAINSBORO     CLOUDY    64  34  32 E10G21    30.26R
VIDALIA        CLOUDY    64  52  63 E14G20    30.25R
EASTMAN        FAIR      67  37  33 E7        30.24R
HAZLEHURST     FAIR      65  53  63 SE10G17   30.22R
ALMA           CLEAR     63  52  67 E8        30.21R
WAYCROSS       PTCLDY    65  59  82 E8        30.22R
JESUP          FAIR      63  54  72 E6        30.23R
BAXLEY         CLOUDY    64  55  72 E7        30.23R
BRUNSWICK      PTCLDY    63  59  88 NE10      30.22R
SAINT SIMONS   PTCLDY    64  58  80 E13       30.20R

$$

SCZ027-028-034-036>038-045-046-048>050-GAZ119-141-230400-
...LAKE AND SUPPLEMENTAL COASTAL OBSERVATIONS...

STATION/POSITION TIME  TEMP    WIND        PRES    WAVE   SWELL
                       AIR SEA DIR/SP/G            HT/PER HT/PER/DIR
                 (UTC) (F)     (DEG/KT/KT) (MB)    (FT/S) (FT/S/D)
WINYAH BAY       0230   57      80/ 16     1026.0R
LAKE MURRAY      0250   54      50/  2/  4 1025.4R
ACE BASIN NERRS  0230   59      40/  5     1025.0R
FORT PULASKI     0300   61 61   70/ 16/ 21 1024.4
SAPELO ISLAND    0300   63      60/  9     1023.0

$$

ANZ835-935-AMZ111-154-330-350-352-354-370-450-454-472-230400-
...C-MAN AND BUOY OBSERVATIONS...

STATION/POSITION TIME  TEMP    WIND        PRES    WAVE   SWELL
                       AIR SEA DIR/SP/G            HT/PER HT/PER/DIR
                 (UTC) (F)     (DEG/KT/KT) (MB)    (FT/S) (FT/S/D)
BUOY 41004       0250   63 66   50/ 23/ 27 1023.8R   7/ 8   2/ 80/10
BUOY 41008       0250   64 62   80/ 14/ 17 1022.6R   5/ 6   2/ 30/11
FOLLY BEACH CMAN 0300   60      60/ 16/ 18 1026.2R
CAPERS NEARSHORE NOT AVBL
FRIPP NEARSHORE  0308   61 60   50/ 19/ 25 1024.9R


STATION/POSITION TIME  TEMP    WIND        PRES    WAVE   SWELL
                       AIR SEA DIR/SP/G            HT/PER HT/PER/DIR
                 (UTC) (F)     (DEG/KT/KT) (MB)    (FT/S) (FT/S/D)
5E ST. MARYS GA  0300      64                N/A     4/ 5   2/110/11
FRYING PAN BUOY  0310   57 63   40/ 25/ 31 1027.0
BUOY 41025       0250   48 74   20/ 21/ 27 1028.9R  10/11   7/ 50/11
CAPE LOOKOUT NC  0300   48      40/ 22/ 26 1029.2R
BUOY 41002       0250   63 73   20/ 27/ 31 1022.0R  10/ 7   7/360/ 8
BUOY 41010       NOT AVBL
ST AUGUSTINE FL  0300   67 66   40/  8/  9 1022.3R


$$




USA.gov is the U.S. government's official web portal to all federal, state and local government web resources and services.